[[{"header":{"parameterUnit":"m.s-1","parameterCategory":1,"la1":30.2991,"la2":30.254,"lo1":-89.0895,"lo2":-89.0444,"dy":0.0017,"dx":0.0017,"nx":28,"ny":28,"refTime":"2025-05-15T09:00:00:Z","depth":0,"parameterNumber":2,"parameterNumberName":"U-component_of_WINDS"},"data":[0,0,0,0,0,0,0,0,0,0,0,0,0,0,0,0,0,0,0,0,0,0,0,0,0,0,0,0,0,0,0,0,0,0,0,0,0,0,0,0,0,0,0,0,0,0,0,0,0,0,0,0,0,0,0,0,0,0,2.6709,2.671,0,2.6801,2.6802,2.6803,2.6788,2.6787,2.6785,2.6784,2.6878,2.6882,2.6886,0,0,0,0,0,0,0,0,0,0,0,0,0,2.6517,2.652,2.6709,2.671,2.6711,2.6801,2.6802,2.6804,2.6789,2.6787,2.6785,2.6783,2.6876,2.6881,2.6886,0,0,0,0,0,0,0,0,0,0,0,0,0,2.6604,2.6522,2.6708,2.6714,2.6716,2.6801,2.6802,2.6804,2.6789,2.6787,2.6784,2.6782,2.6875,2.6881,2.6887,2.6971,0,0,2.6905,2.6907,0,0,0,0,0,0,0,0,2.6599,2.6611,2.6712,2.6714,2.6716,2.6781,2.6769,2.686,2.679,2.6761,2.6784,2.6781,2.6847,2.6855,2.6878,2.6976,2.698,2.6905,2.6909,2.6912,2.6913,0,0,0,0,0,0,0,2.6593,2.6607,2.6745,2.6714,2.6716,2.6712,2.6721,2.6786,2.6817,2.6764,2.6763,2.6774,2.6848,2.6872,2.688,2.6981,2.6905,2.691,2.6914,2.6916,2.7151,2.7153,0,0,0,0,0,0,2.6585,2.6602,2.6742,2.6748,2.665,2.6717,2.6728,2.6762,2.6816,2.6822,2.6776,2.6773,2.6863,2.6873,2.6883,2.6984,2.6911,2.6917,2.6921,2.7148,2.7151,2.7154,0,0,0,0,0,0,2.6581,2.6598,2.6739,2.6675,2.6692,2.6723,2.6762,2.6766,2.679,2.6825,2.683,2.6795,2.6862,2.6875,2.6949,2.6988,2.692,2.6925,2.7145,2.7149,2.7153,2.7188,0,0,0,0,0,0,2.6576,2.6597,2.663,2.6676,2.6696,2.6803,2.6764,2.6769,2.68,2.6797,2.6845,2.685,2.6861,2.694,2.6955,2.6995,2.693,2.7141,2.7147,2.7151,2.7184,2.7193,2.7201,0,0,0,0,0,2.6569,2.6636,2.6632,2.6649,2.6738,2.6806,2.6817,2.6828,2.6804,2.6836,2.6859,2.6849,2.6981,2.6948,2.6964,2.7006,2.7139,2.7145,2.7151,2.718,2.7191,2.7201,0,0,0,0,0,0,2.6594,2.6643,2.6638,2.6722,2.676,2.6803,2.6845,2.684,2.6885,2.6881,2.6892,2.6903,2.6978,2.7,2.6962,2.709,2.7057,2.7066,2.7073,2.7084,2.7092,2.7085,2.6935,0,0,0,0,0,2.661,2.6661,2.67,2.6771,2.679,2.6814,2.6844,2.6849,2.6889,2.6905,2.6933,2.6971,2.7021,2.7054,2.7102,2.7187,2.7196,2.7224,2.7232,2.7239,2.7247,2.7292,2.7304,2.7173,2.7173,2.7173,0,0,2.6642,2.6674,2.6706,2.6777,2.6807,2.6859,2.6828,2.6885,2.6923,2.6914,2.6985,2.7007,2.705,2.7129,2.7166,2.715,2.7285,2.7247,2.7252,2.7256,2.7299,2.7311,2.7322,2.7177,2.7177,2.7176,0,0,2.6727,2.6757,2.6819,2.6849,2.6895,2.691,2.6925,2.6969,2.6983,2.7055,2.7048,2.7093,2.718,2.7211,2.7238,2.7333,2.7325,2.7348,2.7392,2.7436,2.7446,2.7455,2.7488,2.7499,2.7356,2.7356,2.7356,0,2.6761,2.684,2.6851,2.6908,2.6938,2.6932,2.6993,2.7022,2.7081,2.7102,2.7083,2.7191,2.722,2.7305,2.7328,2.7351,2.7367,2.7343,2.7444,2.7453,2.7462,2.7493,2.7505,2.7359,2.7358,2.7358,2.7358,0,2.6878,2.6933,2.6977,2.7034,2.7069,2.7129,2.7147,2.7182,2.7184,2.7201,2.7273,2.7308,2.7362,2.7383,2.7385,2.7468,2.7457,2.7441,2.7408,2.7477,2.7506,2.7518,2.7362,2.7361,2.7361,2.736,0,0,2.6982,2.7043,2.7059,2.7084,2.7133,2.7176,2.7234,2.7287,2.7315,2.7356,2.7404,2.7477,2.7462,2.7493,2.7499,2.7537,2.7608,2.7517,2.7518,2.7531,2.77,2.771,2.7724,2.7604,2.7606,2.7608,2.7696,0,2.707,2.7173,2.7184,2.7276,2.7326,2.732,2.737,2.7405,2.7423,2.7467,2.7486,2.7537,2.7515,2.7533,2.757,2.7592,2.7642,2.7586,2.7647,2.7649,2.7635,2.774,2.7752,2.7833,2.7707,2.7709,2.7711,0,2.7187,2.7231,2.7327,2.7369,2.739,2.7435,2.7484,2.7527,2.7566,2.7576,2.7609,2.761,2.7669,2.7633,2.7714,2.7675,2.7701,2.7715,2.7718,2.7724,2.7683,2.7746,2.7859,2.7871,2.7729,2.7728,2.7726,0,2.725,2.7334,2.7402,2.7424,2.7474,2.7505,2.7528,2.7565,2.7595,2.7638,2.7658,2.7706,2.7733,2.777,2.7783,2.7757,2.7863,2.7829,2.7871,2.7871,2.7893,2.7891,2.801,2.7912,2.7912,2.7912,2.7911,0,2.7347,2.7406,2.7431,2.7473,2.7538,2.755,2.7614,2.7635,2.7668,2.7712,2.7711,2.7753,2.7768,2.7812,2.7823,2.7887,2.79,2.7908,2.791,2.7908,2.7906,2.7924,2.7918,2.7915,2.7914,2.7913,2.7913,0,2.7429,2.7448,2.7522,2.7563,2.7575,2.7621,2.7656,2.7695,2.7712,2.7769,2.7783,2.7809,2.786,2.7878,2.7941,2.7948,2.8022,2.8019,2.8008,2.8008,2.8049,2.8045,2.8183,2.8201,2.8092,2.8093,2.8094,0,2.7489,2.7534,2.758,2.761,2.7633,2.7682,2.7713,2.7726,2.7758,2.7806,2.784,2.7891,2.7933,2.8016,2.804,2.8088,2.8085,2.8131,2.8093,2.8088,2.8084,2.8081,2.8085,2.8137,2.8138,2.8139,2.814,0,2.7592,2.7599,2.7645,2.7693,2.773,2.7769,2.7806,2.783,2.7849,2.7885,2.7938,2.797,2.8034,2.8085,2.8133,2.8155,2.815,2.8152,2.8164,2.8161,2.8152,2.8156,2.8026,2.8148,2.8148,2.8147,2.8147,2.8146,2.7664,2.7703,2.7741,2.7791,2.7821,2.7855,2.7894,2.7915,2.796,2.8013,2.8018,2.8075,2.8112,2.8176,2.82,2.8244,2.8231,2.8249,2.8254,2.8258,2.826,2.8146,2.8253,2.8253,2.8253,2.8253,2.8253,0,2.7766,2.779,2.7836,2.7888,2.7927,2.792,2.796,2.7993,2.8043,2.8078,2.8119,2.8179,2.8228,2.8255,2.8304,2.8334,2.8332,2.8346,2.8343,2.8348,2.8269,2.8253,2.8346,2.8346,2.8346,2.8346,2.8346,2.8346,2.7824,2.7889,2.7901,2.798,2.8003,2.8059,2.8083,2.8114,2.8142,2.8209,2.825,2.8267,2.8299,2.835,2.8394,2.84,2.8418,2.8432,2.8437,2.8363,2.8354,2.8344,2.8329,2.8436,2.8436,2.8512,2.8512,2.8513]},{"header":{"parameterUnit":"m.s-1","parameterCategory":1,"la1":30.2991,"la2":30.254,"lo1":-89.0895,"lo2":-89.0444,"dy":0.0017,"dx":0.0017,"nx":28,"ny":28,"refTime":"2025-05-15T09:00:00:Z","depth":0,"parameterNumber":3,"parameterNumberName":"V-component_of_WINDS"},"data":[0,0,0,0,0,0,0,0,0,0,0,0,0,0,0,0,0,0,0,0,0,0,0,0,0,0,0,0,0,0,0,0,0,0,0,0,0,0,0,0,0,0,0,0,0,0,0,0,0,0,0,0,0,0,0,0,0,0,3.857,3.8571,0,3.8637,3.8638,3.8639,3.8611,3.861,3.8608,3.8607,3.8671,3.8674,3.8677,0,0,0,0,0,0,0,0,0,0,0,0,0,3.8414,3.8417,3.857,3.8571,3.8572,3.8637,3.8638,3.8639,3.8611,3.861,3.8608,3.8606,3.867,3.8674,3.8677,0,0,0,0,0,0,0,0,0,0,0,0,0,3.8481,3.8418,3.857,3.8566,3.8567,3.8637,3.8638,3.8639,3.8612,3.8609,3.8607,3.8605,3.8669,3.8673,3.8678,3.8755,0,0,3.8692,3.8695,0,0,0,0,0,0,0,0,3.8478,3.8487,3.8566,3.8567,3.8567,3.8614,3.8606,3.8678,3.8612,3.8595,3.8606,3.8604,3.8653,3.8659,3.8677,3.8758,3.8761,3.8693,3.8696,3.8698,3.8699,0,0,0,0,0,0,0,3.8473,3.8484,3.8597,3.8567,3.8568,3.8559,3.8566,3.862,3.8636,3.8596,3.8594,3.8603,3.8653,3.8672,3.8678,3.8762,3.8693,3.8697,3.87,3.8702,3.8907,3.891,0,0,0,0,0,0,3.8469,3.848,3.8595,3.8599,3.8516,3.8564,3.8572,3.8601,3.8636,3.8639,3.8605,3.8601,3.8665,3.8673,3.868,3.8772,3.8698,3.8702,3.8705,3.8905,3.8908,3.8911,0,0,0,0,0,0,3.8466,3.8479,3.8592,3.8539,3.8553,3.857,3.8602,3.8604,3.8623,3.8642,3.8645,3.8622,3.8664,3.8674,3.8736,3.8774,3.8704,3.8709,3.8902,3.8906,3.8909,3.8957,0,0,0,0,0,0,3.8461,3.8478,3.8509,3.854,3.8556,3.8649,3.8605,3.8607,3.8632,3.8628,3.8659,3.8662,3.8663,3.873,3.8741,3.8779,3.8713,3.8898,3.8904,3.8908,3.8952,3.8962,3.897,0,0,0,0,0,3.8456,3.8519,3.8511,3.8525,3.8595,3.8651,3.866,3.8661,3.8635,3.8665,3.8677,3.8661,3.8768,3.8736,3.8749,3.8789,3.8896,3.8902,3.8908,3.8948,3.896,3.897,0,0,0,0,0,0,3.8491,3.8523,3.8514,3.859,3.8618,3.8646,3.8684,3.8674,3.8709,3.8704,3.8702,3.8709,3.8774,3.8788,3.8752,3.8865,3.8828,3.8836,3.8854,3.8865,3.8874,3.887,3.8716,0,0,0,0,0,3.8507,3.8552,3.8577,3.8641,3.8656,3.8668,3.8692,3.8691,3.8719,3.8731,3.8748,3.8775,3.8814,3.884,3.8878,3.8953,3.8959,3.8987,3.8996,3.9004,3.9011,3.9051,3.9064,3.893,3.893,3.893,0,0,3.8542,3.8565,3.8593,3.8649,3.867,3.8715,3.8678,3.8727,3.8759,3.8738,3.8798,3.8812,3.8841,3.8911,3.8942,3.8924,3.9049,3.9011,3.9017,3.9021,3.9059,3.9071,3.9082,3.8934,3.8933,3.8933,0,0,3.8628,3.865,3.8706,3.8729,3.8762,3.877,3.8783,3.8813,3.8821,3.8882,3.8867,3.8904,3.8973,3.8995,3.9015,3.9108,3.9093,3.912,3.9168,3.9207,3.9217,3.9226,3.9259,3.9271,3.9127,3.9127,3.9127,0,3.8666,3.8735,3.8736,3.8786,3.881,3.8794,3.8849,3.887,3.8914,3.893,3.8909,3.8995,3.9014,3.9088,3.911,3.9127,3.9141,3.9117,3.9216,3.9225,3.9234,3.9265,3.9277,3.913,3.913,3.913,3.9129,0,3.878,3.8827,3.8868,3.8912,3.894,3.8993,3.9,3.9029,3.9024,3.9033,3.9095,3.9117,3.9158,3.9176,3.9171,3.9248,3.9236,3.9216,3.9179,3.925,3.9279,3.9291,3.9135,3.9134,3.9133,3.9132,0,0,3.889,3.8934,3.8949,3.8968,3.9004,3.9039,3.909,3.9132,3.9156,3.9186,3.9228,3.9286,3.9267,3.929,3.9288,3.9322,3.9393,3.9297,3.9298,3.9314,3.9479,3.9494,3.9508,3.9384,3.9386,3.9388,3.9476,0,3.8979,3.907,3.9072,3.9155,3.9198,3.9182,3.9226,3.9251,3.9261,3.9297,3.9306,3.9348,3.932,3.9334,3.9367,3.9378,3.9426,3.9371,3.9421,3.9423,3.9415,3.9523,3.954,3.9622,3.9487,3.9489,3.9491,0,3.9095,3.913,3.9218,3.9246,3.9264,3.9304,3.9342,3.9378,3.9405,3.9409,3.9435,3.9427,3.9477,3.9438,3.9506,3.9468,3.9489,3.9497,3.95,3.9505,3.9462,3.9531,3.9648,3.9661,3.9509,3.9507,3.9506,0,3.9167,3.9236,3.9297,3.9314,3.9349,3.9377,3.9392,3.9418,3.9443,3.9475,3.9491,3.9528,3.9548,3.9577,3.9578,3.955,3.9647,3.9608,3.9651,3.9651,3.9672,3.9671,3.9795,3.9685,3.9685,3.9685,3.9684,0,3.9265,3.932,3.933,3.9367,3.9427,3.9427,3.9486,3.9498,3.9521,3.956,3.9547,3.9583,3.9584,3.962,3.9621,3.9677,3.9686,3.969,3.969,3.9691,3.9691,3.9705,3.9699,3.9688,3.9687,3.9686,3.9686,0,3.9356,3.9365,3.9431,3.9458,3.9466,3.9509,3.9532,3.9567,3.9574,3.9623,3.9635,3.9646,3.9688,3.9693,3.9741,3.9742,3.9809,3.9803,3.9801,3.98,3.9842,3.9838,3.9979,3.9997,3.9876,3.9877,3.9878,0,3.9419,3.946,3.9492,3.9518,3.9536,3.9577,3.9602,3.9603,3.963,3.9664,3.9695,3.9736,3.9769,3.9836,3.9848,3.9884,3.9879,3.9926,3.9884,3.9884,3.9879,3.9877,3.988,3.9934,3.9935,3.9936,3.9937,0,3.9529,3.9531,3.9569,3.9609,3.964,3.967,3.9699,3.972,3.9724,3.9754,3.9798,3.9824,3.9873,3.9914,3.995,3.9963,3.9951,3.995,3.9962,3.9964,3.9961,3.9963,3.9823,3.9947,3.9946,3.9945,3.9945,3.9944,3.9607,3.9643,3.9672,3.9714,3.9736,3.9763,3.9797,3.9809,3.9846,3.9888,3.9885,3.9933,3.9958,4.0005,4.0022,4.0058,4.0042,4.0059,4.0063,4.0067,4.0072,3.9955,4.0064,4.0064,4.0063,4.0063,4.0063,0,3.9717,3.9734,3.9773,3.9814,3.9847,3.9833,3.9864,3.9892,3.9935,3.996,3.9992,4.0042,4.008,4.0095,4.0132,4.0158,4.0153,4.0168,4.0166,4.017,4.0084,4.007,4.0172,4.0172,4.0172,4.0171,4.0171,4.0171,3.9778,3.9838,3.9843,3.9913,3.9929,3.9977,3.9996,4.002,4.004,4.0096,4.0129,4.0138,4.0159,4.0197,4.0232,4.0235,4.0249,4.0266,4.0267,4.0187,4.0176,4.0165,4.0152,4.0269,4.0269,4.035,4.035,4.0351]}]]